DIRECTV 14

Last updated on Sun Apr 12 2026 00:02:53 GMT+0000 (Coordinated Universal Time)

1 40333U 14078B 26101.50101730 .00000000 00000+0 00000+0 0 9998 2 40333 0.0126 194.6649 0000805 302.4400 143.7401 1.00267747 41378
UTC large
Height (km)
Speed (km/s)
/
Latitude / Longitude
Inclination (degrees)
Orbital Period (minutes)
Azimuth
Elevation
Range (km)
Doppler Factor

Next 0 passes for location: London (51.5072 / 0.1276)

Sorry there are no passes over London.
DIRECTV 14